GW5170 Weather Reports


time (UTC)temp
C
wind
direction
speed
KPH
gust
KPH
rain 1hr
cm
rain 24hr
cm
rain mn
cm
humidity
%
barometer
mb
20260831185517 32 260 3.2 4.8 0.00 0.00 0.00 60 1013.3
20260831185012 31 266 6.4 6.4 0.00 0.00 0.00 61 1013.3
20260831184507 31 247 9.7 11.3 0.00 0.00 0.00 63 1013.3
20260831184002 31 329 4.8 4.8 0.00 0.00 0.00 61 1013.5
20260831183501 31 327 6.4 9.7 0.00 0.00 0.00 60 1013.5
20260831183001 31 313 4.8 4.8 0.00 0.00 0.00 61 1013.4
20260831182456 31 264 9.7 11.3 0.00 0.00 0.00 59 1013.5
20260831181951 30 294 3.2 4.8 0.00 0.00 0.00 62 1013.6
20260831181446 31 262 11.3 12.9 0.00 0.00 0.00 62 1013.6
20260831180941 31 276 9.7 9.7 0.00 0.00 0.00 62 1013.9
20260831180435 30 263 6.4 11.3 0.00 0.00 0.00 61 1014.1
20260831175934 30 341 6.4 6.4 0.00 0.00 0.00 62 1014.2
20260831175431 30 330 3.2 4.8 0.00 0.00 0.00 63 1013.7
20260831174926 31 295 4.8 4.8 0.00 0.00 0.00 60 1014.0
20260831174422 30 312 3.2 4.8 0.00 0.00 0.00 63 1014.0
20260831173921 30 285 8.0 9.7 0.00 0.00 0.00 64 1013.6
20260831173420 30 269 8.0 9.7 0.00 0.00 0.00 64 1013.7
20260831172916 30 269 4.8 4.8 0.00 0.00 0.00 63 1013.6
20260831172412 30 267 4.8 4.8 0.00 0.00 0.00 62 1013.7
20260831171911 30 254 6.4 9.7 0.00 0.00 0.00 60 1013.6
20260831171408 31 306 6.4 6.4 0.00 0.00 0.00 60 1013.9
20260831170904 30 242 3.2 4.8 0.00 0.00 0.00 61 1014.0
20260831170400 30 293 4.8 4.8 0.00 0.00 0.00 64 1014.0
20260831165856 29 210 4.8 6.4 0.00 0.00 0.00 64 1014.1
20260831165352 30 305 9.7 12.9 0.00 0.00 0.00 64 1014.0
20260831164848 29 347 6.4 11.3 0.00 0.00 0.00 64 1014.3
20260831164344 30 242 8.0 12.9 0.00 0.00 0.00 63 1014.2
20260831163840 29 272 9.7 12.9 0.00 0.00 0.00 65 1014.3
20260831163335 29 252 4.8 9.7 0.00 0.00 0.00 64 1014.1
20260831162833 29 312 6.4 9.7 0.00 0.00 0.00 65 1014.1
20260831162329 29 252 8.0 11.3 0.00 0.00 0.00 66 1014.2
20260831161828 29 277 6.4 6.4 0.00 0.00 0.00 66 1014.0
20260831161324 28 283 6.4 6.4 0.00 0.00 0.00 66 1014.0
20260831160819 28 256 4.8 4.8 0.00 0.00 0.00 65 1014.1
20260831160314 28 341 4.8 6.4 0.00 0.00 0.00 66 1014.1
20260831155814 28 259 6.4 6.4 0.00 0.00 0.00 66 1014.0
20260831155309 28 336 1.6 1.6 0.00 0.00 0.00 66 1014.1
20260831154805 28 275 6.4 9.7 0.00 0.00 0.00 66 1013.9
20260831154301 28 302 9.7 11.3 0.00 0.00 0.00 66 1013.6
20260831153759 28 274 11.3 14.5 0.00 0.00 0.00 66 1013.7
20260831153255 28 189 8.0 12.9 0.00 0.00 0.00 67 1013.7
20260831152751 28 202 14.5 16.1 0.00 0.00 0.00 66 1014.0
20260831152247 28 277 6.4 9.7 0.00 0.00 0.00 65 1013.6
20260831151741 28 224 12.9 16.1 0.00 0.00 0.00 65 1013.4
20260831151241 28 238 12.9 16.1 0.00 0.00 0.00 65 1013.3
20260831150736 28 281 9.7 9.7 0.00 0.00 0.00 65 1013.3
20260831150231 28 246 14.5 16.1 0.00 0.00 0.00 66 1013.2
20260831145730 28 252 12.9 16.1 0.00 0.00 0.00 66 1013.1
20260831145227 28 277 12.9 20.9 0.00 0.00 0.00 66 1013.1
20260831144722 28 207 9.7 14.5 0.00 0.00 0.00 66 1013.1
20260831144219 28 270 6.4 6.4 0.00 0.00 0.00 66 1013.1
20260831143717 27 281 8.0 9.7 0.00 0.00 0.00 67 1013.1
20260831143213 27 309 12.9 17.7 0.00 0.00 0.00 68 1013.0
20260831142709 27 264 11.3 14.5 0.00 0.00 0.00 69 1013.1
20260831142204 27 243 9.7 12.9 0.00 0.00 0.00 68 1013.0
20260831141703 27 285 6.4 9.7 0.00 0.00 0.00 70 1013.1
20260831141158 27 261 6.4 9.7 0.00 0.00 0.00 70 1012.8
20260831140658 26 213 11.3 16.1 0.00 0.00 0.00 70 1012.7
20260831140153 26 273 12.9 14.5 0.00 0.00 0.00 71 1013.1
20260831135650 26 230 6.4 11.3 0.00 0.00 0.00 72 1013.0
20260831135146 26 263 8.0 11.3 0.00 0.00 0.00 73 1012.9
20260831134642 26 242 12.9 16.1 0.00 0.00 0.00 73 1012.8
20260831134138 26 336 8.0 11.3 0.00 0.00 0.00 73 1012.8
20260831133636 25 220 9.7 11.3 0.00 0.00 0.00 74 1013.0
20260831133131 25 265 4.8 6.4 0.00 0.00 0.00 74 1013.0
20260831132627 25 242 8.0 11.3 0.00 0.00 0.00 74 1013.0
20260831132126 25 224 6.4 6.4 0.00 0.00 0.00 75 1013.1
20260831131621 25 273 8.0 9.7 0.00 0.00 0.00 76 1013.0
20260831131118 25 245 3.2 3.2 0.00 0.00 0.00 75 1012.6
20260831130613 25 256 9.7 11.3 0.00 0.00 0.00 75 1012.9
20260831130109 25 255 8.0 11.3 0.00 0.00 0.00 75 1012.8
20260831125606 25 252 4.8 6.4 0.00 0.00 0.00 75 1012.8
20260831125102 25 257 6.4 6.4 0.00 0.00 0.00 76 1012.9
20260831124559 24 328 3.2 3.2 0.00 0.00 0.00 76 1012.9
20260831124054 24 268 4.8 4.8 0.00 0.00 0.00 76 1012.7
20260831123553 24 313 4.8 6.4 0.00 0.00 0.00 77 1012.8
20260831123048 23 246 4.8 4.8 0.00 0.00 0.00 77 1012.8
20260831122548 23 260 3.2 4.8 0.00 0.00 0.00 77 1012.6
20260831122044 23 320 3.2 3.2 0.00 0.00 0.00 78 1012.7
20260831121538 23 335 1.6 3.2 0.00 0.00 0.00 78 1012.6
20260831121034 23 238 4.8 4.8 0.00 0.00 0.00 78 1012.7
20260831120533 23 308 1.6 3.2 0.00 0.00 0.00 79 1012.5
20260831120029 23 341 0.0 1.6 0.00 0.00 0.00 79 1012.5
20260831115525 23 260 3.2 4.8 0.00 0.00 0.00 78 1012.3
20260831115021 23 338 3.2 3.2 0.00 0.00 0.00 79 1012.4
20260831114519 23 340 3.2 3.2 0.00 0.00 0.00 79 1012.5
20260831114014 23 352 3.2 3.2 0.00 0.00 0.00 79 1012.3
20260831113513 23 293 3.2 3.2 0.00 0.00 0.00 79 1012.4
20260831113010 23 285 1.6 3.2 0.00 0.00 0.00 79 1012.3
20260831112503 23 203 4.8 4.8 0.00 0.00 0.00 79 1012.4
20260831111958 23 255 3.2 4.8 0.00 0.00 0.00 79 1012.5
20260831111454 23 347 1.6 3.2 0.00 0.00 0.00 79 1012.5
20260831110949 23 208 4.8 4.8 0.00 0.00 0.00 80 1012.4
20260831110444 23 325 3.2 4.8 0.00 0.00 0.00 79 1012.6
20260831105943 23 252 4.8 4.8 0.00 0.00 0.00 80 1012.8
20260831105439 23 267 1.6 3.2 0.00 0.00 0.00 79 1012.6
20260831104939 23 283 3.2 3.2 0.00 0.00 0.00 79 1012.6
20260831104435 23 218 4.8 4.8 0.00 0.00 0.00 79 1012.6
20260831103931 23 251 3.2 3.2 0.00 0.00 0.00 79 1012.7
20260831103426 23 349 3.2 3.2 0.00 0.00 0.00 79 1012.7
20260831102921 23 289 3.2 4.8 0.00 0.00 0.00 79 1012.8
20260831102416 23 252 3.2 3.2 0.00 0.00 0.00 79 1012.8
20260831101911 23 308 1.6 1.6 0.00 0.00 0.00 79 1012.8
20260831101406 23 289 3.2 3.2 0.00 0.00 0.00 79 1012.8
20260831100903 23 276 3.2 3.2 0.00 0.00 0.00 79 1012.7
20260831100358 23 207 3.2 3.2 0.00 0.00 0.00 79 1012.9
20260831095858 23 298 3.2 3.2 0.00 0.00 0.00 79 1012.8
20260831095357 23 225 6.4 6.4 0.00 0.00 0.00 79 1012.9
20260831094853 23 294 3.2 4.8 0.00 0.00 0.00 79 1012.9
20260831094348 23 341 3.2 4.8 0.00 0.00 0.00 79 1012.8
20260831093844 23 231 4.8 4.8 0.00 0.00 0.00 79 1013.0
20260831093339 23 312 3.2 3.2 0.00 0.00 0.00 79 1013.0
20260831092836 23 315 3.2 3.2 0.00 0.00 0.00 79 1012.9
20260831092331 23 306 3.2 3.2 0.00 0.00 0.00 79 1012.9
20260831091825 23 287 1.6 3.2 0.00 0.00 0.00 79 1013.0
20260831091316 23 308 3.2 3.2 0.00 0.00 0.00 79 1013.0
20260831090811 23 219 3.2 3.2 0.00 0.00 0.00 79 1013.1
20260831090306 23 205 4.8 4.8 0.00 0.00 0.00 79 1013.1
20260831085802 23 221 3.2 4.8 0.00 0.00 0.00 79 1013.2
20260831085252 23 340 3.2 4.8 0.00 0.00 0.00 78 1013.1
20260831084746 23 222 6.4 6.4 0.00 0.00 0.00 78 1012.9
20260831084243 23 234 4.8 6.4 0.00 0.00 0.00 79 1012.9
20260831083738 23 322 3.2 3.2 0.00 0.00 0.00 79 1013.1
20260831083234 23 198 4.8 4.8 0.00 0.00 0.00 79 1012.9
20260831082732 23 217 6.4 9.7 0.00 0.00 0.00 80 1012.9
20260831082228 23 277 3.2 4.8 0.00 0.00 0.00 80 1012.9
20260831081723 23 318 3.2 6.4 0.00 0.00 0.00 80 1012.8
20260831081219 23 265 3.2 3.2 0.00 0.00 0.00 81 1012.8
20260831080714 23 321 3.2 4.8 0.00 0.00 0.00 81 1012.8
20260831080213 23 196 6.4 6.4 0.00 0.00 0.00 81 1012.8
20260831075709 23 236 3.2 4.8 0.00 0.00 0.00 81 1012.7
20260831075205 23 282 3.2 3.2 0.00 0.00 0.00 81 1012.9
20260831074704 23 314 3.2 3.2 0.00 0.00 0.00 81 1012.7
20260831074159 23 309 1.6 3.2 0.00 0.00 0.00 81 1012.7
20260831073654 23 203 3.2 3.2 0.00 0.00 0.00 81 1012.7
20260831073153 23 227 4.8 4.8 0.00 0.00 0.00 81 1012.8
20260831072649 23 181 1.6 3.2 0.00 0.00 0.00 82 1012.9
20260831072145 23 206 4.8 4.8 0.00 0.00 0.00 82 1013.0
20260831071644 23 220 4.8 6.4 0.00 0.00 0.00 82 1013.1
20260831071139 23 306 3.2 3.2 0.00 0.00 0.00 82 1013.1
20260831070638 23 298 3.2 3.2 0.00 0.00 0.00 82 1013.2
20260831070133 23 340 1.6 4.8 0.00 0.00 0.00 83 1013.3
20260831065631 23 282 4.8 4.8 0.00 0.00 0.00 83 1013.2
20260831065125 23 235 4.8 6.4 0.00 0.00 0.00 84 1013.3
20260831064625 23 320 1.6 3.2 0.00 0.00 0.00 85 1013.4
20260831064121 23 329 3.2 3.2 0.00 0.00 0.00 85 1013.4
20260831063617 23 305 1.6 1.6 0.00 0.00 0.00 86 1013.5
20260831063112 23 16 3.2 3.2 0.00 0.00 0.00 86 1013.5
20260831062607 23 306 3.2 3.2 0.00 0.00 0.00 87 1013.5
20260831062106 22 250 3.2 3.2 0.00 0.00 0.00 88 1013.6
20260831061604 22 339 3.2 3.2 0.00 0.00 0.00 88 1013.5
20260831061100 22 161 3.2 4.8 0.00 0.00 0.00 88 1013.5
20260831060556 22 11 3.2 3.2 0.00 0.00 0.00 89 1013.5
20260831060050 22 318 1.6 3.2 0.00 0.00 0.00 89 1013.5
20260831055545 22 326 3.2 4.8 0.00 0.00 0.00 88 1013.5
20260831055041 23 345 3.2 3.2 0.00 0.00 0.00 88 1013.6
20260831054540 23 173 4.8 6.4 0.00 0.00 0.00 88 1013.5
20260831054039 23 147 3.2 4.8 0.00 0.00 0.00 88 1013.5
20260831053538 23 301 1.6 3.2 0.00 0.00 0.00 88 1013.7
20260831053033 23 206 6.4 11.3 0.00 0.00 0.00 88 1013.6
20260831052532 23 198 9.7 11.3 0.00 0.00 0.00 88 1013.4
20260831052026 23 328 1.6 3.2 0.00 0.00 0.00 88 1013.4
20260831051524 23 282 6.4 6.4 0.00 0.00 0.00 88 1013.5
20260831051024 23 330 1.6 1.6 0.00 0.00 0.00 88 1013.6
20260831050523 23 214 3.2 6.4 0.00 0.00 0.00 89 1013.5
20260831050022 23 197 4.8 4.8 0.00 0.76 0.76 88 1013.6
20260831045521 23 347 0.0 1.6 0.00 0.76 0.76 88 1013.9
20260831045017 23 325 0.0 1.6 0.00 0.76 0.76 87 1013.9
20260831044512 23 299 3.2 4.8 0.00 0.76 0.76 88 1013.9
20260831044007 23 324 1.6 1.6 0.00 0.76 0.76 88 1013.5
20260831043507 23 101 6.4 9.7 0.00 0.76 0.76 88 1013.7
20260831043002 23 171 4.8 6.4 0.00 0.76 0.76 88 1013.6
20260831042502 23 228 3.2 3.2 0.00 0.76 0.76 89 1013.6
20260831041957 23 92 8.0 11.3 0.00 0.76 0.76 89 1013.7
20260831041452 23 10 3.2 4.8 0.00 0.76 0.76 89 1013.7
20260831040951 23 186 6.4 6.4 0.00 0.76 0.76 89 1013.6
20260831040446 23 24 1.6 3.2 0.00 0.76 0.76 89 1013.9
20260831035943 23 260 6.4 11.3 0.00 0.76 0.76 88 1014.0
20260831035443 23 289 3.2 3.2 0.00 0.76 0.76 89 1014.1
20260831034938 23 350 1.6 3.2 0.00 0.76 0.76 89 1014.2
20260831034433 23 207 4.8 4.8 0.00 0.76 0.76 89 1014.1
20260831033928 23 213 6.4 9.7 0.00 0.76 0.76 90 1013.7
20260831033424 23 234 4.8 6.4 0.00 0.76 0.76 89 1013.9
20260831032920 23 210 8.0 9.7 0.00 0.76 0.76 89 1014.1
20260831032419 23 171 4.8 9.7 0.00 0.76 0.76 89 1014.2
20260831031915 23 343 4.8 6.4 0.00 0.76 0.76 88 1014.3
20260831031414 23 36 3.2 3.2 0.00 0.76 0.76 87 1014.5
20260831030908 23 95 4.8 6.4 0.00 0.76 0.76 87 1014.5
20260831030408 24 189 6.4 6.4 0.00 0.76 0.76 86 1014.3
20260831025906 24 236 4.8 4.8 0.00 0.76 0.76 86 1014.4
20260831025406 24 186 4.8 4.8 0.00 0.76 0.76 85 1014.4
20260831024902 23 159 4.8 4.8 0.00 0.76 0.76 86 1014.5
20260831024401 23 146 6.4 9.7 0.00 0.76 0.76 86 1014.4
20260831023901 23 359 1.6 3.2 0.00 0.76 0.76 87 1014.5
20260831023359 23 250 4.8 4.8 0.00 0.76 0.76 88 1014.5
20260831022855 23 3 0.0 0.0 0.00 0.76 0.76 89 1014.6
20260831022353 23 346 1.6 1.6 0.00 0.76 0.76 88 1014.6
20260831021848 23 353 0.0 1.6 0.00 0.76 0.76 88 1014.7
20260831021348 23 2 1.6 1.6 0.00 0.76 0.76 88 1014.3
20260831020844 23 344 0.0 1.6 0.00 0.76 0.76 88 1014.3
20260831020344 23 351 0.0 1.6 0.00 0.76 0.76 88 1014.5
20260831015839 23 8 1.6 3.2 0.00 0.76 0.76 88 1014.4
20260831015335 23 347 3.2 3.2 0.00 0.76 0.76 88 1014.4
20260831014835 23 92 1.6 3.2 0.00 0.76 0.76 88 1014.4
20260831014330 23 349 3.2 3.2 0.00 0.76 0.76 88 1014.2
20260831013826 23 40 3.2 4.8 0.00 0.76 0.76 88 1014.2
20260831013325 23 5 1.6 1.6 0.00 0.76 0.76 88 1014.2
20260831012820 23 75 3.2 4.8 0.00 0.76 0.76 88 1014.0
20260831012316 23 350 3.2 4.8 0.00 0.76 0.76 88 1014.0
20260831011815 22 91 6.4 6.4 0.00 0.76 0.76 89 1013.7
20260831011310 22 217 3.2 4.8 0.00 0.76 0.76 89 1013.9
20260831010801 22 84 4.8 4.8 0.00 0.76 0.76 89 1013.9
20260831010300 22 83 4.8 4.8 0.00 0.76 0.76 89 1014.0
20260831005756 22 43 6.4 9.7 0.00 0.76 0.76 89 1014.2
20260831005252 23 339 3.2 3.2 0.00 0.76 0.76 89 1014.2
20260831004746 23 96 8.0 9.7 0.00 0.76 0.76 89 1014.1
20260831004242 23 95 4.8 4.8 0.00 0.76 0.76 89 1014.1
20260831003738 23 153 6.4 9.7 0.00 0.76 0.76 88 1014.2
20260831003234 23 164 6.4 9.7 0.00 0.76 0.76 88 1014.3
20260831002733 23 228 4.8 4.8 0.00 0.76 0.76 88 1014.3
20260831002232 23 82 3.2 4.8 0.00 0.76 0.76 88 1014.2
20260831001729 23 61 4.8 6.4 0.00 0.76 0.76 88 1014.4
20260831001223 23 121 4.8 6.4 0.00 0.76 0.76 87 1014.4
20260831000720 23 101 4.8 4.8 0.00 0.76 0.76 86 1014.5
20260831000215 23 359 3.2 4.8 0.00 0.76 0.76 86 1014.8
20260830235714 23 134 4.8 6.4 0.00 0.76 0.76 85 1014.5
20260830235209 23 194 3.2 4.8 0.00 0.76 0.76 84 1014.7
20260830234704 23 14 3.2 3.2 0.00 0.76 0.76 85 1014.4
20260830234200 23 54 4.8 6.4 0.00 0.76 0.76 85 1014.5
20260830233655 23 87 8.0 11.3 0.00 0.76 0.76 85 1014.5
20260830233151 23 157 6.4 6.4 0.00 0.76 0.76 87 1014.7
20260830232646 23 61 3.2 4.8 0.00 0.76 0.76 87 1014.7
20260830232142 23 44 3.2 3.2 0.00 0.76 0.76 87 1015.0
20260830231638 23 336 4.8 6.4 0.00 0.76 0.76 86 1014.8
20260830231138 23 9 3.2 4.8 0.00 0.76 0.76 89 1014.8
20260830230633 23 237 4.8 6.4 0.00 0.76 0.76 89 1014.6
20260830230132 23 148 4.8 6.4 0.00 0.76 0.76 90 1014.6
20260830225628 23 149 6.4 9.7 0.00 0.76 0.76 89 1014.7
20260830225128 23 271 4.8 4.8 0.00 0.76 0.76 90 1014.7
20260830224627 23 347 0.0 0.0 0.00 0.76 0.76 90 1014.7
20260830224123 23 355 1.6 3.2 0.00 0.76 0.76 90 1014.5
20260830223620 23 355 1.6 1.6 0.00 0.76 0.76 90 1014.6
20260830223120 22 18 1.6 1.6 0.00 0.76 0.76 90 1014.4
20260830222620 22 8 0.0 0.0 0.00 0.76 0.76 90 1014.5
20260830222116 22 350 1.6 1.6 0.00 0.76 0.76 91 1014.7
20260830221612 22 1 1.6 3.2 0.00 0.76 0.76 91 1014.4
20260830221108 22 325 3.2 3.2 0.00 0.76 0.76 89 1014.7
20260830220603 22 350 1.6 1.6 0.00 0.76 0.76 89 1014.5
20260830220101 22 350 0.0 0.0 0.00 0.76 0.76 90 1014.4
20260830215600 22 351 0.0 0.0 0.00 0.76 0.76 91 1014.4
20260830215055 22 346 0.0 0.0 0.13 0.76 0.76 91 1014.4
20260830214550 22 153 6.4 6.4 0.13 0.76 0.76 90 1014.5
20260830214045 22 342 1.6 3.2 0.00 0.74 0.74 92 1014.6
20260830213540 22 315 3.2 3.2 0.00 0.74 0.74 92 1014.2
20260830213035 22 89 6.4 6.4 0.18 0.74 0.74 93 1014.3
20260830212530 22 340 0.0 0.0 0.48 0.74 0.74 95 1015.1
20260830212025 22 302 1.6 3.2 0.43 0.71 0.71 94 1014.5
20260830211520 22 309 4.8 4.8 0.30 0.66 0.66 93 1014.5
20260830211020 22 312 0.0 1.6 0.18 0.64 0.64 93 1013.9
20260830210515 22 69 3.2 3.2 0.36 0.64 0.64 92 1013.5
20260830210014 22 222 8.0 9.7 0.18 0.61 0.61 92 1013.4
20260830205512 22 120 4.8 4.8 0.13 0.58 0.58 93 1013.3
20260830205008 22 143 6.4 6.4 0.13 0.58 0.58 93 1013.5
20260830204506 22 293 4.8 6.4 0.18 0.56 0.56 92 1013.9
20260830204001 22 101 3.2 4.8 0.30 0.56 0.56 92 1013.9
20260830203457 22 190 14.5 22.5 0.30 0.53 0.53 92 1014.2
20260830202956 22 183 8.0 11.3 0.30 0.51 0.51 92 1014.3
20260830202451 22 202 9.7 11.3 0.30 0.48 0.48 91 1014.6
20260830201948 22 262 9.7 12.9 0.48 0.46 0.46 92 1014.4
20260830201446 22 217 12.9 16.1 0.43 0.43 0.43 93 1014.6
20260830200943 22 195 9.7 12.9 0.48 0.41 0.41 93 1015.0
20260830200442 22 212 11.3 12.9 0.48 0.36 0.36 93 1014.9
20260830195937 22 248 6.4 6.4 0.30 0.33 0.33 93 1015.6
20260830195432 22 307 3.2 3.2 0.18 0.28 0.28 92 1015.5
20260830194930 22 288 4.8 4.8 0.18 0.28 0.28 91 1015.7
20260830194430 22 313 1.6 1.6 0.00 0.25 0.25 91 1015.3
20260830193930 22 339 3.2 4.8 0.00 0.25 0.25 91 1015.4
20260830193428 22 310 3.2 3.2 0.00 0.25 0.25 91 1015.5
20260830192924 22 299 4.8 4.8 0.00 0.25 0.25 90 1015.4
20260830192420 22 291 3.2 4.8 0.00 0.25 0.25 90 1015.4
20260830191914 22 312 1.6 3.2 0.00 0.25 0.25 90 1015.3
20260830191414 22 287 3.2 3.2 0.00 0.25 0.25 91 1015.4
20260830190910 22 344 4.8 6.4 0.00 0.25 0.25 90 1015.1
20260830190405 22 215 6.4 6.4 0.00 0.25 0.25 90 1015.4
20260830185904 22 274 4.8 4.8 0.00 0.25 0.25 91 1015.5